Key West NAF, FL

11:38 PM EDT on May 23, 2017 (GMT -0400)
Key West Naval Air Station

Weather History for KNQX - May, 2014

Change the Weather History Date:

Sunday, May 25, 2014

  Actual Average Record
Temperature  
Mean Temperature 80 °F -  
Max Temperature 87 °F 85 °F 91 °F (1989)
Min Temperature 75 °F 76 °F 66 °F (2002)
Cooling Degree Days 16    
Growing Degree Days 30 (Base 50)    
Moisture  
Dew Point 73 °F    
Average Humidity 79    
Maximum Humidity 91    
Minimum Humidity 67    
Precipitation  
Precipitation 0.00 in - - ()
Sea Level Pressure  
Sea Level Pressure 30.06 in    
Wind  
Wind Speed 7 mph (ESE)    
Max Wind Speed 15 mph    
Max Gust Speed -    
Visibility 10 miles    
Events      
Averages and records for this station are not official NWS values.
T = Trace of Precipitation, MM = Missing Value Source: NWS Daily Summary

Daily Weather History Graph

Daily Weather History Graph

Search for Another Location

Airport or City:

Trip Planner

Search our weather history database for the weather conditions in past years. The results will help you decide how hot, cold, wet, or windy it might be!

Date:

Astronomy

May. 25, 2014 Rise Set
Actual Time 6:39 AM EDT 8:08 PM EDT
Civil Twilight 6:14 AM EDT 8:33 PM EDT
Nautical Twilight 5:44 AM EDT 9:03 PM EDT
Astronomical Twilight 5:13 AM EDT 9:34 PM EDT
Moon 4:21 AM EDT (5/25) 5:25 PM EDT (5/25)
Length of Visible Light 14h 19m
Length of Day
13h 29m
Waning Crescent, 10% of the Moon is Illuminated
May 25
Waning Crescent
May 28
New
Jun 5
First Quarter
Jun 13
Full
Jun 19
Last Quarter

Hourly Weather History & Observations

Time (EDT) Temp. Heat Index Dew Point Humidity Pressure Visibility Wind Dir Wind Speed Gust Speed Precip Events Conditions
12:53 AM 77.0 °F - 72.0 °F 84% 30.05 in 10.0 mi SE 6.9 mph - N/A   Partly Cloudy
1:53 AM 78.1 °F - 72.0 °F 81% 30.03 in 10.0 mi ESE 6.9 mph - N/A   Partly Cloudy
2:53 AM 77.0 °F - 72.0 °F 84% 30.02 in 10.0 mi ESE 4.6 mph - N/A   Partly Cloudy
3:41 AM 75.9 °F - 73.0 °F 91% 30.02 in 10.0 mi ESE 3.5 mph - N/A   Mostly Cloudy
3:48 AM 75.2 °F - 71.6 °F 89% 30.03 in 10.0 mi ESE 4.6 mph - N/A   Scattered Clouds
3:53 AM 75.9 °F - 72.0 °F 87% 30.03 in 10.0 mi ESE 3.5 mph - N/A   Scattered Clouds
4:53 AM 75.9 °F - 72.0 °F 87% 30.03 in 10.0 mi East 4.6 mph - N/A   Clear
5:53 AM 77.0 °F - 73.0 °F 88% 30.05 in 10.0 mi East 3.5 mph - N/A   Scattered Clouds
6:53 AM 75.9 °F - 73.0 °F 91% 30.05 in 10.0 mi ESE 5.8 mph - N/A   Mostly Cloudy
7:53 AM 78.1 °F - 73.9 °F 87% 30.06 in 10.0 mi ESE 4.6 mph - N/A   Mostly Cloudy
8:53 AM 81.0 °F 86.2 °F 73.9 °F 79% 30.08 in 10.0 mi East 8.1 mph - N/A   Mostly Cloudy
9:53 AM 82.9 °F 89.4 °F 73.9 °F 74% 30.08 in 10.0 mi East 6.9 mph - N/A   Mostly Cloudy
10:53 AM 84.0 °F 91.2 °F 73.9 °F 72% 30.09 in 10.0 mi East 8.1 mph - N/A   Mostly Cloudy
11:53 AM 84.9 °F 91.4 °F 73.0 °F 67% 30.09 in 10.0 mi ESE 9.2 mph - N/A   Mostly Cloudy
12:53 PM 86.0 °F 95.1 °F 75.0 °F 70% 30.08 in 10.0 mi ESE 10.4 mph - N/A   Mostly Cloudy
1:53 PM 86.0 °F 93.8 °F 73.9 °F 67% 30.07 in 10.0 mi ESE 12.7 mph - N/A   Mostly Cloudy
2:53 PM 86.0 °F 93.8 °F 73.9 °F 67% 30.06 in 10.0 mi East 11.5 mph - N/A   Scattered Clouds
3:53 PM 86.0 °F 95.1 °F 75.0 °F 70% 30.04 in 10.0 mi ESE 15.0 mph - N/A   Clear
4:53 PM 84.9 °F 91.4 °F 73.0 °F 67% 30.03 in 10.0 mi East 11.5 mph - N/A   Clear
5:53 PM 84.0 °F 90.2 °F 73.0 °F 69% 30.03 in 10.0 mi ESE 11.5 mph - N/A   Clear
6:53 PM 82.9 °F 88.8 °F 73.0 °F 72% 30.04 in 10.0 mi East 12.7 mph - N/A   Clear
7:53 PM 81.0 °F 85.8 °F 73.0 °F 77% 30.04 in 10.0 mi ESE 12.7 mph - N/A   Clear
8:53 PM 80.1 °F 84.2 °F 73.0 °F 79% 30.06 in 10.0 mi ESE 10.4 mph - N/A   Clear
9:53 PM 79.0 °F - 73.9 °F 84% 30.08 in 10.0 mi ESE 8.1 mph - N/A   Clear
10:53 PM 79.0 °F - 73.9 °F 84% 30.09 in 10.0 mi East 9.2 mph - N/A   Clear
11:53 PM 80.1 °F 84.5 °F 73.9 °F 81% 30.10 in 10.0 mi East 11.5 mph - N/A   Clear